Terug naar catalogus

THORAD DELTA 1 DEB

ActiefSSO
NORAD 8403·DEBRIS·🇺🇸 United States

Gelanceerd Nov 15, 1974 vanaf Vandenberg Space Force Base

Loading…

Volgende Passages (komende 24 uur)

TLE

VersSource: Space-Track

Epoch: Sep 13, 2026, 05:20 UTC

1  8403U 74089CF  26256.22291561  .00000108  00000-0  10295-2 0  9990
2  8403 101.5468 351.6424 0055740 230.3348 158.3786 12.47085334360476

Volg THORAD DELTA 1 DEB in realtime met AllMySat

Download on the App Store